ROMMA est une association bénévole à but non lucratif. Votre soutien est indispensable : ADHERER à ROMMA ou FAIRE un DON

Taninges - (74, Haute-Savoie)

Vallée du Giffre (635 m)   Longitude: 06° 35' 38" E   Latitude: 46° 06' 21" N Station romma n°98
 

Détail journalier du     <<     >>

Température Precipitation Humidité Pression Vent Dir Rafale Dir. rafale Ensol.
Heure (°C) (mm) (%) (hPa) (km/h) (km/h) (min)
01:00 6.709510151SSE3O0
02:00 6.4096101503SSE0
03:00 6.4096101603SO0
04:00 6.609610161ONO6O0
05:00 6.60.69610161N5ONO0
06:00 6.7096101703N0
07:00 7.10.49710171NNO5NO0
08:00 8.109610172SSE5ONO15
09:00 8.209510181SE5SSE0
10:00 9.509210182SO11OSO5
11:00 10.609110185OSO11SO0
12:00 12.008010185OSO11SO0
13:00 13.307310185OSO16O0
14:00 14.606310186O15O10
15:00 14.605610185ENE18NNE15
16:00 14.506110196NE29ENE5
17:00 15.905610196O16O20
18:00 15.105510195O13SE0
19:00 12.60.26710209ENE27ENE0
20:00 12.106910217ENE19ENE0
21:00 11.507410213N10NNO0
22:00 10.208110222ONO16ONO0
23:00 8.909010231ESE5SSO0
minuit 7.409010231ESE5SO0

Graphique du 29-05-2019

 

Serveur OMMA